This demonstration page uses our WeatherBlox Daily Observations layout. Learn more.

Left ArrowRight Arrow

40.97296, -117.73568

Hourly Observations for May 15, 2022

Temp ( °F °C ) Dew Point ( °F °C ) Humidity (%) Winds ( mph kmh ) Pressure ( in mb ) Visibility ( mi km ) Precip ( " mm )
12:56 am 00:56 Clear 58 14.4 35 1.7 42 42 NE 9 15 30.03 1017 10 16 0.00 0.00
1:56 am 01:56 Clear 58 14.4 36 2.2 44 44 ENE 13 20 30.01 1016 10 16 0.00 0.00
2:56 am 02:56 Clear 55 12.8 36 2.2 49 49 E 8 13 30.01 1016 10 16 0.00 0.00
3:56 am 03:56 Clear 46 7.8 34 1.1 63 63 E 6 9 30.02 1017 10 16 0.00 0.00
4:56 am 04:56 Clear 41 5 32 0 70 70 SSE 8 13 30.02 1017 10 16 0.00 0.00
5:56 am 05:56 Sunny 40 4.4 32 0 73 73 SE 6 9 30.03 1017 10 16 0.00 0.00
6:56 am 06:56 Sunny 51 10.6 37 2.8 59 59 SE 5 7 30.02 1017 10 16 0.00 0.00
7:56 am 07:56 Sunny 59 15 40 4.4 49 49 ENE 8 13 30.00 1016 10 16 0.00 0.00
8:56 am 08:56 Sunny 65 18.3 40 4.4 40 40 ENE 14 22 29.99 1016 10 16 0.00 0.00
9:56 am 09:56 Sunny 72 22.2 39 3.9 30 30 ENE 10 17 29.97 1015 10 16 0.00 0.00
10:56 am 10:56 Sunny 77 25 39 3.9 26 26 NE 12 19 29.93 1014 10 16 0.00 0.00
11:56 am 11:56 Sunny 80 26.7 37 2.8 21 21 SSE 7 11 29.89 1012 10 16 0.00 0.00
12:56 pm 12:56 Sunny 84 28.9 36 2.2 18 18 VRB 6 9 29.84 1011 10 16 0.00 0.00
1:56 pm 13:56 Mostly Sunny 86 30 32 0 14 14 VRB 6 9 29.80 1009 10 16 0.00 0.00
2:49 pm 14:49 Mostly Sunny 88 31.1 32 0 13 13 W 20 31 29.55 1001 10 16 0.00 0.00
2:56 pm 14:56 Mostly Sunny 88 31.1 32 0 13 13 W 17 28 29.79 1009 10 16 0.00 0.00
3:56 pm 15:56 Sunny 87 30.6 27 -2.8 11 11 WSW 15 24 29.79 1009 10 16 0.00 0.00
4:56 pm 16:56 Sunny 87 30.6 28 -2.2 12 12 SW 10 17 29.78 1009 10 16 0.00 0.00
5:56 pm 17:56 Sunny 86 30 29 -1.7 13 13 W 14 22 29.78 1008 10 16 0.00 0.00
6:56 pm 18:56 Sunny 80 26.7 32 0 17 17 WNW 15 24 29.78 1008 10 16 0.00 0.00
7:56 pm 19:56 Sunny 74 23.3 33 0.6 22 22 W 13 20 29.79 1009 10 16 0.00 0.00
8:56 pm 20:56 Clear 70 21.1 31 -0.6 23 23 WSW 10 17 29.82 1010 10 16 0.00 0.00
9:56 pm 21:56 Mostly Clear 70 21.1 37 2.8 30 30 W 10 17 29.85 1011 10 16 0.00 0.00
10:56 pm 22:56 Mostly Cloudy 70 21.1 32 0 25 25 WNW 8 13 29.85 1011 10 16 0.00 0.00
11:56 pm 23:56 Clear 65 18.3 32 0 29 29 WSW 9 15 29.85 1011 10 16 0.00 0.00

Powered by AerisWeather